#timestamp,LO_Frequency,Hit,StdDev 
1551074415.4,286047000.0,N
1551074435.3,286046999.8,N
1551074455.1,286047000.4,N
1551074475.9,286047002.0,N
1551074495.7,286047003.4,N
1551074515.5,286047004.8,Y
1551074535.4,286047003.9,P
1551074555.2,286047002.7,N
1551074575.1,286047002.4,N
1551074576.0,286047002.4,N
1551074595.8,286047001.0,N
1551074615.6,286047002.7,N
1551074635.5,286047000.6,N
1551074655.3,286047001.0,N
1551074675.1,286047000.9,N
1551074695.9,286047000.4,N
1551074715.7,286047000.8,N
1551074735.6,286046998.9,N
1551074755.4,286047000.7,N
1551074775.2,286046998.1,N
1551074795.1,286047002.3,N
1551074796.0,286047002.3,N
1551074815.8,286047001.9,N
1551074835.6,286047000.2,N
1551074855.5,286047001.0,N
1551074875.3,286047002.8,N
1551074895.2,286047000.0,N
1551074915.9,286047001.2,N
1551074935.7,286046998.2,N
1551074955.6,286047000.8,N
1551074975.4,286046999.2,N
1551074995.2,286047001.0,N
1551075015.1,286047000.3,N
1551075016.0,286047000.3,N
1551075035.8,286047000.0,N
1551075055.7,286046998.7,N
1551075075.5,286046998.2,N
1551075095.3,286046998.8,N
1551075115.2,286046997.2,N
1551075135.0,286046998.3,N
1551075135.9,286046998.3,N
1551075155.7,286047000.3,N
1551075175.6,286047000.4,N
1551075195.4,286047001.6,N
1551075215.3,286047004.3,Y
1551075235.1,286047000.0,P
1551075255.8,286046998.1,P
1551075275.7,286047000.0,N
1551075295.5,286047001.9,N
1551075315.3,286047003.4,N
1551075335.2,286047003.9,N
1551075355.0,286047001.6,N
1551075355.9,286047001.6,N
1551075375.8,286047003.9,N
1551075395.6,286047005.7,Y
1551075415.4,286047001.4,P
1551075435.3,286047001.0,P
1551075455.1,286046999.5,N
1551075475.9,286046999.1,N
1551075495.7,286046998.9,N
1551075515.5,286046999.2,N
1551075535.4,286046995.3,Y
1551075555.2,286046995.1,P
1551075575.0,286046997.7,N
1551075575.9,286046997.7,N
1551075595.8,286046997.0,N
1551075615.6,286046997.3,N
1551075635.5,286047000.6,N
1551075655.3,286047000.7,N
1551075675.1,286046998.9,N
1551075695.9,286046999.5,N
1551075715.7,286046995.4,N
1551075735.5,286046995.1,N
1551075755.4,286046995.2,N
1551075775.2,286046996.8,N
1551075795.1,286046998.2,N
1551075796.0,286046998.2,N
1551075815.8,286047000.6,N
1551075835.6,286047000.6,N
1551075855.5,286047000.1,N
1551075875.3,286047001.9,N
1551075895.1,286047002.0,N
1551075915.9,286047004.0,N
1551075935.7,286047000.1,N
1551075955.6,286047001.0,N
1551075975.4,286047000.5,N
1551075995.2,286047000.0,N
1551076015.1,286047001.4,N
1551076016.0,286047001.4,N
1551076035.8,286047000.4,N
1551076055.6,286046999.8,N
1551076075.5,286047000.1,N
1551076095.3,286047000.6,N
1551076115.2,286047001.2,N
1551076135.0,286046998.3,N
1551076135.9,286046998.3,N
1551076155.8,286046996.8,N
1551076175.6,286046997.6,N
1551076195.4,286046997.2,N
1551076215.3,286046997.0,N
1551076235.1,286046999.5,N
1551076255.8,286046999.4,N
1551076275.7,286046999.0,N
1551076295.5,286046997.1,N
1551076315.4,286046996.7,N
1551076335.2,286046997.4,N
1551076355.0,286046996.7,N
1551076355.9,286046996.7,N
1551076375.8,286046996.7,N
1551076395.6,286046997.0,N
1551076415.5,286046997.4,N
1551076435.3,286046999.1,N
1551076455.1,286046998.8,N
1551076475.9,286047000.5,N
1551076495.7,286047000.3,N
1551076515.6,286047000.2,N
1551076535.4,286047002.5,N
1551076555.2,286047004.4,N
1551076575.1,286046999.7,N
1551076576.0,286046999.7,N
1551076595.8,286046998.1,N
1551076615.6,286046998.2,N
1551076635.5,286046999.3,N
1551076655.3,286046999.1,N
1551076675.2,286047001.0,N
1551076695.9,286047000.2,N
1551076715.7,286046999.7,N
1551076735.6,286047000.1,N
1551076755.4,286046999.8,N
1551076775.2,286047001.0,N
1551076795.1,286047000.0,N
1551076796.0,286047000.0,N
1551076815.8,286047000.1,N
1551076835.7,286047000.7,N
1551076855.5,286046998.3,N
1551076875.3,286046999.2,N
1551076895.2,286046998.5,N
1551076915.0,286047002.6,N
1551076915.9,286047002.6,N
1551076935.8,286047002.3,N
1551076955.6,286047001.5,N
1551076975.4,286047001.8,N
1551076995.3,286047001.9,N
1551077015.1,286047004.4,N
1551077035.8,286047004.1,N
1551077055.7,286046999.8,N
1551077075.5,286046999.9,N
1551077095.4,286047002.6,N
1551077115.2,286047002.8,N
1551077135.0,286047000.2,N
1551077135.9,286047000.2,N
1551077155.8,286047002.0,N
1551077175.6,286047002.5,N
1551077195.4,286047002.6,N
1551077215.3,286047001.6,N
1551077235.1,286047002.5,N
1551077255.9,286047002.0,N
1551077275.7,286047000.3,N
1551077295.5,286047001.0,N
1551077315.4,286047000.7,N
1551077335.2,286046998.1,N
1551077355.0,286046999.6,N
1551077356.0,286046999.6,N
1551077375.8,286046999.6,N
1551077395.6,286046998.8,N
1551077415.5,286046998.8,N
1551077435.3,286047001.2,N
1551077455.1,286046997.3,N
1551077475.9,286046999.6,N
1551077495.7,286046999.0,N
1551077515.5,286046999.4,N
1551077535.4,286046998.7,N
1551077555.2,286046999.6,N
1551077575.1,286047000.4,N
1551077576.0,286047000.4,N
1551077595.8,286046999.3,N
1551077615.6,286046999.0,N
1551077635.5,286047001.0,N
1551077655.3,286047000.8,N
1551077675.1,286046999.0,N
1551077695.9,286046999.4,N
1551077715.7,286046998.4,N
1551077735.6,286046998.8,N
1551077755.4,286046996.7,N
1551077775.2,286046997.0,N
1551077795.1,286046998.9,N
1551077796.0,286046998.9,N
1551077815.8,286046998.4,N
1551077835.7,286046998.7,N
1551077855.5,286046998.9,N
1551077875.3,286046999.1,N
1551077895.2,286046998.1,N
1551077915.0,286046998.8,N
1551077915.9,286046998.8,N
1551077935.8,286046999.4,N
1551077955.6,286047000.7,N
1551077975.4,286047000.1,N
1551077995.3,286047002.1,N
